Time,TemperatureF,DewpointF,PressureIn,WindDirection,WindDirectionDegrees,WindSpeedMPH,WindSpeedGustMPH,Humidity,HourlyPrecipIn,Conditions,Clouds,dailyrainin,SoftwareType,DateUTC
2013-02-12 00:01:00,35.0,34.0,-100.00,NE,45,3.0,4.0,96,-99.99,,,-99.99,,2013-02-12 05:01:00,
2013-02-12 00:11:00,35.0,34.0,-100.00,NNE,25,2.0,4.0,96,-99.99,,,-99.99,,2013-02-12 05:11:00,
2013-02-12 00:21:00,35.0,34.0,-100.00,NNE,25,2.0,4.0,96,-99.99,,,-99.99,,2013-02-12 05:21:00,
2013-02-12 00:32:00,35.0,34.0,-100.00,ENE,65,2.0,5.0,96,-99.99,,,-99.99,,2013-02-12 05:32:00,
2013-02-12 00:42:00,34.0,33.0,-100.00,NE,35,2.0,3.0,96,-99.99,,,-99.99,,2013-02-12 05:42:00,
2013-02-12 00:52:00,34.0,33.0,-100.00,NE,35,2.0,3.0,96,-99.99,,,-99.99,,2013-02-12 05:52:00,
2013-02-12 01:02:00,34.0,33.0,-100.00,NNE,25,7.0,9.0,96,-99.99,,,-99.99,,2013-02-12 06:02:00,
2013-02-12 01:12:00,37.0,36.0,-100.00,NNE,25,6.0,12.0,96,-99.99,,,-99.99,,2013-02-12 06:12:00,
2013-02-12 01:22:00,37.0,36.0,-100.00,NNE,25,6.0,12.0,96,-99.99,,,-99.99,,2013-02-12 06:22:00,
2013-02-12 01:32:00,36.0,35.0,-100.00,NE,50,6.0,8.0,96,-99.99,,,-99.99,,2013-02-12 06:32:00,
2013-02-12 01:42:00,36.0,35.0,-100.00,NE,35,7.0,16.0,96,-99.99,,,-99.99,,2013-02-12 06:42:00,
2013-02-12 01:52:00,36.0,35.0,-100.00,NE,35,7.0,16.0,96,-99.99,,,-99.99,,2013-02-12 06:52:00,
2013-02-12 02:02:00,36.0,33.0,-100.00,NE,55,4.0,10.0,91,-99.99,,,-99.99,,2013-02-12 07:02:00,
2013-02-12 02:12:00,36.0,33.0,-100.00,NE,55,4.0,10.0,91,-99.99,,,-99.99,,2013-02-12 07:12:00,
2013-02-12 02:32:00,37.0,25.0,-100.00,ENE,75,12.0,21.0,61,-99.99,,,-99.99,,2013-02-12 07:32:00,
2013-02-12 02:42:00,38.0,25.0,-100.00,NE,40,5.0,17.0,57,-99.99,,,-99.99,,2013-02-12 07:42:00,
2013-02-12 02:51:00,38.0,25.0,-100.00,NE,40,5.0,17.0,57,-99.99,,,-99.99,,2013-02-12 07:51:00,
2013-02-12 03:01:00,39.0,24.0,-100.00,ENE,75,6.0,18.0,56,-99.99,,,-99.99,,2013-02-12 08:01:00,
2013-02-12 03:11:00,39.0,25.0,-100.00,NE,50,4.0,13.0,57,-99.99,,,-99.99,,2013-02-12 08:11:00,
2013-02-12 03:22:00,39.0,25.0,-100.00,NE,50,4.0,13.0,57,-99.99,,,-99.99,,2013-02-12 08:22:00,
2013-02-12 03:32:00,38.0,25.0,-100.00,East,85,6.0,10.0,58,-99.99,,,-99.99,,2013-02-12 08:32:00,
2013-02-12 03:42:00,39.0,25.0,-100.00,East,85,6.0,19.0,56,-99.99,,,-99.99,,2013-02-12 08:42:00,
2013-02-12 03:52:00,39.0,25.0,-100.00,East,85,6.0,19.0,56,-99.99,,,-99.99,,2013-02-12 08:52:00,
2013-02-12 04:02:00,41.0,23.0,-100.00,East,90,12.0,35.0,50,-99.99,,,-99.99,,2013-02-12 09:02:00,
2013-02-12 04:11:00,40.0,23.0,-100.00,ENE,75,6.0,26.0,50,-99.99,,,-99.99,,2013-02-12 09:11:00,
2013-02-12 04:22:00,40.0,23.0,-100.00,ENE,75,6.0,26.0,50,-99.99,,,-99.99,,2013-02-12 09:22:00,
2013-02-12 04:32:00,40.0,23.0,-100.00,ENE,60,8.0,27.0,50,-99.99,,,-99.99,,2013-02-12 09:32:00,
2013-02-12 04:42:00,40.0,23.0,-100.00,NE,50,7.0,18.0,51,-99.99,,,-99.99,,2013-02-12 09:42:00,
2013-02-12 04:51:00,40.0,23.0,-100.00,NE,50,7.0,18.0,51,-99.99,,,-99.99,,2013-02-12 09:51:00,
2013-02-12 05:02:00,40.0,23.0,-100.00,NE,55,12.0,21.0,50,-99.99,,,-99.99,,2013-02-12 10:02:00,
2013-02-12 05:11:00,40.0,23.0,-100.00,NE,55,12.0,21.0,50,-99.99,,,-99.99,,2013-02-12 10:11:00,
2013-02-12 08:42:00,39.0,21.0,-100.00,NE,50,6.0,10.0,49,-99.99,,,-99.99,,2013-02-12 13:42:00,
2013-02-12 08:52:00,39.0,21.0,-100.00,NE,50,6.0,10.0,49,-99.99,,,-99.99,,2013-02-12 13:52:00,
2013-02-12 09:01:00,39.0,21.0,-100.00,NE,45,7.0,19.0,48,-99.99,,,-99.99,,2013-02-12 14:01:00,
2013-02-12 09:12:00,39.0,21.0,-100.00,NE,40,8.0,14.0,48,-99.99,,,-99.99,,2013-02-12 14:12:00,
2013-02-12 09:22:00,39.0,21.0,-100.00,NE,40,8.0,14.0,48,-99.99,,,-99.99,,2013-02-12 14:22:00,
2013-02-12 09:32:00,40.0,22.0,-100.00,NE,40,11.0,16.0,47,-99.99,,,-99.99,,2013-02-12 14:32:00,
2013-02-12 09:42:00,41.0,22.0,-100.00,NNE,30,10.0,20.0,46,-99.99,,,-99.99,,2013-02-12 14:42:00,
2013-02-12 09:52:00,41.0,22.0,-100.00,NNE,30,10.0,20.0,46,-99.99,,,-99.99,,2013-02-12 14:52:00,
2013-02-12 10:02:00,42.0,22.0,-100.00,NE,40,7.0,15.0,45,-99.99,,,-99.99,,2013-02-12 15:02:00,
2013-02-12 10:11:00,42.0,23.0,-100.00,ESE,105,4.0,20.0,45,-99.99,,,-99.99,,2013-02-12 15:11:00,
2013-02-12 10:21:00,42.0,23.0,-100.00,ESE,105,4.0,20.0,45,-99.99,,,-99.99,,2013-02-12 15:21:00,
2013-02-12 10:32:00,41.0,21.0,-100.00,NNE,30,9.0,19.0,45,-99.99,,,-99.99,,2013-02-12 15:32:00,
2013-02-12 10:42:00,41.0,21.0,-100.00,NE,50,10.0,21.0,46,-99.99,,,-99.99,,2013-02-12 15:42:00,
2013-02-12 10:52:00,41.0,21.0,-100.00,NE,50,10.0,21.0,46,-99.99,,,-99.99,,2013-02-12 15:52:00,
2013-02-12 11:02:00,41.0,22.0,-100.00,NE,55,9.0,19.0,46,-99.99,,,-99.99,,2013-02-12 16:02:00,
2013-02-12 11:11:00,41.0,21.0,-100.00,East,80,10.0,23.0,45,-99.99,,,-99.99,,2013-02-12 16:11:00,
2013-02-12 11:42:00,41.0,21.0,-100.00,East,90,21.0,31.0,44,-99.99,,,-99.99,,2013-02-12 16:42:00,
2013-02-12 11:52:00,41.0,21.0,-100.00,East,100,11.0,25.0,44,-99.99,,,-99.99,,2013-02-12 16:52:00,
2013-02-12 12:01:00,41.0,21.0,-100.00,East,100,11.0,25.0,44,-99.99,,,-99.99,,2013-02-12 17:01:00,
2013-02-12 12:12:00,42.0,22.0,-100.00,East,90,16.0,23.0,44,-99.99,,,-99.99,,2013-02-12 17:12:00,
2013-02-12 12:21:00,42.0,22.0,-100.00,East,90,16.0,23.0,44,-99.99,,,-99.99,,2013-02-12 17:21:00,
2013-02-12 12:32:00,42.0,22.0,-100.00,East,90,14.0,28.0,44,-99.99,,,-99.99,,2013-02-12 17:32:00,
2013-02-12 12:42:00,42.0,22.0,-100.00,NE,55,11.0,20.0,44,-99.99,,,-99.99,,2013-02-12 17:42:00,
2013-02-12 12:52:00,42.0,22.0,-100.00,NE,55,11.0,20.0,44,-99.99,,,-99.99,,2013-02-12 17:52:00,
2013-02-12 13:02:00,41.0,21.0,-100.00,ENE,75,11.0,24.0,44,-99.99,,,-99.99,,2013-02-12 18:02:00,
2013-02-12 13:12:00,42.0,21.0,-100.00,East,90,19.0,28.0,44,-99.99,,,-99.99,,2013-02-12 18:12:00,
2013-02-12 13:23:00,42.0,21.0,-100.00,East,90,19.0,28.0,44,-99.99,,,-99.99,,2013-02-12 18:23:00,
2013-02-12 13:32:00,42.0,22.0,-100.00,East,90,14.0,25.0,44,-99.99,,,-99.99,,2013-02-12 18:32:00,
2013-02-12 13:42:00,42.0,21.0,-100.00,East,85,18.0,30.0,44,-99.99,,,-99.99,,2013-02-12 18:42:00,
2013-02-12 13:51:00,42.0,21.0,-100.00,East,85,18.0,30.0,44,-99.99,,,-99.99,,2013-02-12 18:51:00,
2013-02-12 14:02:00,42.0,22.0,-100.00,East,85,11.0,24.0,44,-99.99,,,-99.99,,2013-02-12 19:02:00,
2013-02-12 14:11:00,42.0,22.0,-100.00,East,90,12.0,25.0,44,-99.99,,,-99.99,,2013-02-12 19:11:00,
2013-02-12 14:21:00,42.0,22.0,-100.00,East,90,12.0,25.0,44,-99.99,,,-99.99,,2013-02-12 19:21:00,
2013-02-12 14:32:00,42.0,22.0,-100.00,NE,45,8.0,25.0,44,-99.99,,,-99.99,,2013-02-12 19:32:00,
2013-02-12 14:42:00,42.0,22.0,-100.00,ENE,70,14.0,21.0,43,-99.99,,,-99.99,,2013-02-12 19:42:00,
2013-02-12 14:52:00,42.0,22.0,-100.00,ENE,70,14.0,21.0,43,-99.99,,,-99.99,,2013-02-12 19:52:00,
2013-02-12 15:01:00,41.0,21.0,-100.00,NE,50,11.0,24.0,44,-99.99,,,-99.99,,2013-02-12 20:01:00,
2013-02-12 15:11:00,41.0,21.0,-100.00,East,80,11.0,21.0,44,-99.99,,,-99.99,,2013-02-12 20:11:00,
2013-02-12 15:22:00,41.0,21.0,-100.00,East,80,11.0,21.0,44,-99.99,,,-99.99,,2013-02-12 20:22:00,
2013-02-12 15:42:00,41.0,21.0,-100.00,ESE,105,10.0,22.0,44,-99.99,,,-99.99,,2013-02-12 20:42:00,
2013-02-12 15:52:00,41.0,21.0,-100.00,ESE,105,10.0,22.0,44,-99.99,,,-99.99,,2013-02-12 20:52:00,
2013-02-12 16:02:00,41.0,20.0,-100.00,East,85,9.0,23.0,44,-99.99,,,-99.99,,2013-02-12 21:02:00,
2013-02-12 16:11:00,40.0,20.0,-100.00,NE,50,6.0,21.0,45,-99.99,,,-99.99,,2013-02-12 21:11:00,
2013-02-12 16:21:00,40.0,20.0,-100.00,NE,50,6.0,21.0,45,-99.99,,,-99.99,,2013-02-12 21:21:00,
2013-02-12 16:32:00,40.0,21.0,-100.00,East,80,10.0,19.0,45,-99.99,,,-99.99,,2013-02-12 21:32:00,
2013-02-12 16:42:00,40.0,21.0,-100.00,ESE,110,9.0,19.0,45,-99.99,,,-99.99,,2013-02-12 21:42:00,
2013-02-12 16:52:00,40.0,21.0,-100.00,ESE,110,9.0,19.0,45,-99.99,,,-99.99,,2013-02-12 21:52:00,
2013-02-12 17:01:00,39.0,20.0,-100.00,ENE,65,6.0,12.0,46,-99.99,,,-99.99,,2013-02-12 22:01:00,
2013-02-12 17:12:00,39.0,20.0,-100.00,NE,45,4.0,13.0,47,-99.99,,,-99.99,,2013-02-12 22:12:00,
2013-02-12 17:22:00,39.0,20.0,-100.00,NE,45,4.0,13.0,47,-99.99,,,-99.99,,2013-02-12 22:22:00,
2013-02-12 17:32:00,39.0,21.0,-100.00,NE,50,10.0,21.0,47,-99.99,,,-99.99,,2013-02-12 22:32:00,
2013-02-12 17:42:00,39.0,21.0,-100.00,NE,45,5.0,11.0,47,-99.99,,,-99.99,,2013-02-12 22:42:00,
2013-02-12 17:52:00,39.0,21.0,-100.00,NE,45,5.0,11.0,47,-99.99,,,-99.99,,2013-02-12 22:52:00,
2013-02-12 18:02:00,39.0,20.0,-100.00,ENE,60,12.0,20.0,47,-99.99,,,-99.99,,2013-02-12 23:02:00,
2013-02-12 18:11:00,39.0,20.0,-100.00,NE,40,11.0,16.0,47,-99.99,,,-99.99,,2013-02-12 23:11:00,
2013-02-12 18:21:00,39.0,20.0,-100.00,NE,40,11.0,16.0,47,-99.99,,,-99.99,,2013-02-12 23:21:00,
2013-02-12 18:32:00,39.0,21.0,-100.00,NE,45,9.0,17.0,48,-99.99,,,-99.99,,2013-02-12 23:32:00,
2013-02-12 18:42:00,38.0,20.0,-100.00,ENE,65,5.0,14.0,48,-99.99,,,-99.99,,2013-02-12 23:42:00,
2013-02-12 18:52:00,38.0,20.0,-100.00,ENE,65,5.0,14.0,48,-99.99,,,-99.99,,2013-02-12 23:52:00,
2013-02-12 19:02:00,38.0,20.0,-100.00,NE,35,4.0,14.0,48,-99.99,,,-99.99,,2013-02-13 00:02:00,
2013-02-12 19:11:00,38.0,20.0,-100.00,ENE,75,5.0,11.0,49,-99.99,,,-99.99,,2013-02-13 00:11:00,
2013-02-12 19:22:00,38.0,20.0,-100.00,ENE,75,5.0,11.0,49,-99.99,,,-99.99,,2013-02-13 00:22:00,
2013-02-12 19:32:00,38.0,21.0,-100.00,ENE,70,4.0,11.0,50,-99.99,,,-99.99,,2013-02-13 00:32:00,
2013-02-12 19:42:00,37.0,21.0,-100.00,ENE,60,4.0,9.0,51,-99.99,,,-99.99,,2013-02-13 00:42:00,
2013-02-12 19:52:00,37.0,21.0,-100.00,ENE,60,4.0,9.0,51,-99.99,,,-99.99,,2013-02-13 00:52:00,
2013-02-12 20:01:00,37.0,21.0,-100.00,NE,40,5.0,12.0,52,-99.99,,,-99.99,,2013-02-13 01:01:00,
2013-02-12 20:11:00,37.0,21.0,-100.00,NE,45,6.0,10.0,52,-99.99,,,-99.99,,2013-02-13 01:11:00,
2013-02-12 20:21:00,37.0,21.0,-100.00,NE,45,6.0,10.0,52,-99.99,,,-99.99,,2013-02-13 01:21:00,
2013-02-12 20:32:00,37.0,21.0,-100.00,NE,55,5.0,10.0,52,-99.99,,,-99.99,,2013-02-13 01:32:00,
2013-02-12 20:42:00,36.0,21.0,-100.00,NE,35,4.0,8.0,53,-99.99,,,-99.99,,2013-02-13 01:42:00,
2013-02-12 20:52:00,36.0,21.0,-100.00,East,80,5.0,9.0,54,-99.99,,,-99.99,,2013-02-13 01:52:00,
2013-02-12 21:01:00,36.0,21.0,-100.00,East,80,5.0,9.0,54,-99.99,,,-99.99,,2013-02-13 02:01:00,
2013-02-12 21:11:00,35.0,21.0,-100.00,NE,35,5.0,8.0,55,-99.99,,,-99.99,,2013-02-13 02:11:00,
2013-02-12 21:22:00,35.0,21.0,-100.00,NE,35,5.0,8.0,55,-99.99,,,-99.99,,2013-02-13 02:22:00,
2013-02-12 21:32:00,34.0,20.0,-100.00,NE,50,3.0,5.0,56,-99.99,,,-99.99,,2013-02-13 02:32:00,
2013-02-12 21:42:00,33.0,21.0,-100.00,NNE,20,5.0,6.0,60,-99.99,,,-99.99,,2013-02-13 02:42:00,
2013-02-12 21:52:00,33.0,21.0,-100.00,NNE,20,5.0,6.0,60,-99.99,,,-99.99,,2013-02-13 02:52:00,
2013-02-12 22:02:00,33.0,21.0,-100.00,NE,40,3.0,6.0,61,-99.99,,,-99.99,,2013-02-13 03:02:00,
2013-02-12 22:12:00,33.0,21.0,-100.00,NE,45,4.0,7.0,62,-99.99,,,-99.99,,2013-02-13 03:12:00,
2013-02-12 22:21:00,33.0,21.0,-100.00,NE,45,4.0,7.0,62,-99.99,,,-99.99,,2013-02-13 03:21:00,
2013-02-12 22:32:00,33.0,21.0,-100.00,NE,45,3.0,6.0,62,-99.99,,,-99.99,,2013-02-13 03:32:00,
2013-02-12 22:42:00,33.0,21.0,-100.00,ENE,65,4.0,9.0,62,-99.99,,,-99.99,,2013-02-13 03:42:00,
2013-02-12 22:51:00,33.0,21.0,-100.00,ENE,65,4.0,9.0,62,-99.99,,,-99.99,,2013-02-13 03:51:00,
2013-02-12 23:01:00,32.0,21.0,-100.00,NNE,25,3.0,7.0,65,-99.99,,,-99.99,,2013-02-13 04:01:00,
2013-02-12 23:11:00,31.0,21.0,-100.00,NNE,20,2.0,5.0,67,-99.99,,,-99.99,,2013-02-13 04:11:00,
2013-02-12 23:21:00,31.0,21.0,-100.00,NNE,20,2.0,5.0,67,-99.99,,,-99.99,,2013-02-13 04:21:00,
2013-02-12 23:32:00,30.0,22.0,-100.00,NNE,30,4.0,5.0,71,-99.99,,,-99.99,,2013-02-13 04:32:00,
2013-02-12 23:42:00,29.0,22.0,-100.00,NNE,25,4.0,5.0,74,-99.99,,,-99.99,,2013-02-13 04:42:00,
2013-02-12 23:52:00,29.0,22.0,-100.00,NNE,25,4.0,5.0,74,-99.99,,,-99.99,,2013-02-13 04:52:00,